This is the latest recevied weather packets stored in our database for station/object M0HPP-13. If no packets are shown the sender has not sent any weather packets the latest 10 day(s).
| Time | Temp. | Humidity | Pressure | Rain* | Wind** | Luminosity | Snow |
|---|---|---|---|---|---|---|---|
| 1777526419 | 6.11° C | 98% | 1026.1 hPa | 0 mm | - | 27 W/m² | - |
| 1777525819 | 5.56° C | 98% | 1025.9 hPa | 0 mm | - | 21 W/m² | - |
| 1777525219 | 5.56° C | 98% | 1025.9 hPa | 0 mm | - | 15 W/m² | - |
| 1777524619 | 5.56° C | 98% | 1026 hPa | 0 mm | - | 10 W/m² | - |
| 1777524019 | 5.56° C | 98% | 1026 hPa | 0 mm | - | 6 W/m² | - |
| 1777523419 | 5° C | 97% | 1026.2 hPa | 0 mm | - | 2 W/m² | - |
| 1777522819 | 4.44° C | 97% | 1026.3 hPa | 0 mm | - | 1 W/m² | - |
| 1777522219 | 5° C | 97% | 1026.2 hPa | 0 mm | - | 0 W/m² | - |
| 1777521619 | 5.56° C | 96% | 1026.3 hPa | 0 mm | - | 0 W/m² | - |
| 1777521019 | 5° C | 96% | 1026.4 hPa | 0 mm | - | 0 W/m² | - |
| 1777520419 | 4.44° C | 95% | 1026.4 hPa | 0 mm | - | 0 W/m² | - |
| 1777519819 | 5° C | 95% | 1026.4 hPa | 0 mm | - | 0 W/m² | - |
| 1777519219 | 5.56° C | 95% | 1026.5 hPa | 0 mm | - | 0 W/m² | - |
| 1777518619 | 5.56° C | 93% | 1026.4 hPa | 0 mm | - | 0 W/m² | - |
| 1777518019 | 5.56° C | 92% | 1026.5 hPa | 0 mm | - | 0 W/m² | - |
| 1777517419 | 6.11° C | 91% | 1026.5 hPa | 0 mm | - | 0 W/m² | - |
| 1777516819 | 6.11° C | 91% | 1026.7 hPa | 0 mm | - | 0 W/m² | - |
| 1777516219 | 6.11° C | 90% | 1026.6 hPa | 0 mm | - | 0 W/m² | - |
| 1777515619 | 6.67° C | 88% | 1026.7 hPa | 0 mm | - | 0 W/m² | - |
| 1777515019 | 6.67° C | 88% | 1026.7 hPa | 0 mm | - | 0 W/m² | - |
| 1777514419 | 7.22° C | 86% | 1026.7 hPa | 0 mm | - | 0 W/m² | - |
| 1777513819 | 6.67° C | 87% | 1026.9 hPa | 0 mm | - | 0 W/m² | - |
| 1777513219 | 6.67° C | 87% | 1027 hPa | 0 mm | - | 0 W/m² | - |
| 1777512619 | 6.67° C | 87% | 1027 hPa | 0 mm | - | 0 W/m² | - |
| 1777512019 | 6.67° C | 87% | 1027 hPa | 0 mm | - | 0 W/m² | - |
* Rain latest hour (hover to see other rain measurements)
** Current wind speed in m/s (hover to see current wind gust speed)